SCP
-0 -0 -0 -0 -0 -0 -0 -0 -0 -0 -0 -0 -0 0 0 -0 0 0 -0 -0 0 0 0 0 0 0 0 0 0 0 0 0 0 0 0 0 0 0 0 0 0 0 0
-0 -0 -0 -0 -0 -0 -0 -0 -0 -0 0 0 0 0 -0 0 -0 -0 -0 -0 -0 -0 0 0 0 0 0 0 0 0 0 0 0 0 0 0 0 0 0 0 0 0 0
-0 -0 -0 -0 -1 -1 -0 -0 -0 -0 -0 -0 0 -0 -0 0 0 0 0 -0 -0 -0 -0 0 0 0 0 0 0 0 0 0 0 0 0 0 0 0 0 0 0 0 0
-0 -0 -0 -0 -1 -1 -1 -1 -1 -1 -0 -0 0 -0 -0 0 0 -0 -0 -0 0 0 -0 -0 0 0 0 0 0 0 0 1 1 0 0 0 0 0 0 0 0 0 0
-0 -0 -0 -0 -1 -2 -3 -2 -1 -1 -1 -0 -0 0 0 -0 -0 -0 0 0 0 -0 -0 0 0 0 0 0 0 0 0 1 1 1 0 0 0 0 0 0 0 0 0
-0 -0 -0 -0 -0 -1 -2 -2 -2 -2 -1 -1 -0 -0 -0 0 -0 -0 0 0 0 0 0 -0 1 1 1 0 0 0 0 0 1 1 1 1 1 1 0 0 0 0 0
-0 -0 -0 -0 -0 -1 -1 -1 -2 -2 -1 -1 -1 -0 -0 -0 0 0 -0 0 0 0 0 0 0 0 1 1 1 1 1 1 1 1 1 1 1 1 0 0 0 0 0
-0 -0 -0 -0 -0 -1 -1 -2 -2 -1 -2 -1 -1 -0 -0 -0 0 0 0 0 0 0 -0 0 0 0 1 1 1 1 1 1 1 1 1 1 1 1 0 0 0 0 0
-0 -0 -0 -0 -0 -0 -1 -2 -3 -2 -1 -1 -1 -0 -0 0 0 0 0 0 0 -0 0 0 0 0 1 1 1 1 1 1 1 1 1 1 0 0 0 0 0 0 0
0 -0 -0 -0 -0 -0 -1 -2 -3 -3 -2 -1 -1 -0 0 0 0 0 1 0 0 -0 -0 0 0 0 1 0 1 1 1 1 0 -0 0 0 0 0 0 0 0 0 0
0 -0 -0 -0 -0 -1 -1 -2 -2 -2 -2 -1 -1 -0 -0 0 0 1 1 1 1 0 -0 -0 0 0 0 1 1 1 1 1 0 0 -0 0 0 0 1 0 0 0 0
0 0 0 0 -0 -0 -1 -1 -2 -1 -1 -1 -1 -1 -0 0 0 0 1 1 1 0 -0 -0 0 0 1 1 1 1 1 1 1 0 0 0 1 1 0 0 0 0 0
0 0 0 0 0 0 -0 -0 -1 -1 -1 -0 -0 -0 0 0 0 0 0 0 1 1 0 1 1 1 1 2 2 1 1 1 1 1 1 1 1 1 1 0 0 0 0
0 0 0 0 1 1 1 0 0 0 -0 0 0 0 0 0 0 0 0 0 0 0 1 1 1 1 2 2 2 2 2 1 1 1 1 1 1 1 1 1 1 1 0
0 0 0 1 3 3 2 1 1 1 0 1 0 0 1 1 0 0 0 1 1 1 2 2 1 1 2 2 2 2 1 2 2 1 1 1 1 1 1 1 1 1 1
0 0 1 2 4 3 3 2 2 3 1 1 1 1 1 1 1 2 2 2 3 2 2 2 2 2 2 2 1 1 1 1 1 1 1 1 1 1 1 0 0 1 1
0 2 2 1 3 3 3 3 3 3 2 2 1 1 1 2 4 4 4 2 2 1 1 1 1 1 1 2 2 1 1 0 0 1 1 1 1 1 1 1 0 0 0
1 3 3 3 2 3 3 3 3 4 4 4 3 3 4 5 5 3 2 1 1 1 1 0 0 0 1 1 1 1 0 0 0 0 0 0 0 0 1 1 1 1 1
1 1 3 5 2 3 4 3 5 4 3 3 4 6 7 4 3 2 1 1 0 0 0 0 0 0 0 0 0 0 0 0 0 0 0 0 0 0 0 0 0 1 1
0 4 5 10 6 3 5 6 6 5 4 5 9 5 4 3 2 1 1 1 1 1 1 1 1 0 1 0 0 0 0 0 0 0 0 0 0 0 0 0 0 0 0
1 1 6 8 8 8 8 10 8 7 9 6 5 4 2 1 1 1 1 2 2 2 1 1 1 1 1 1 1 0 0 0 0 0 0 0 0 0 0 0 0 0 0
-0 1 7 10 10 12 14 13 11 4 6 4 2 1 1 1 2 1 1 1 1 1 1 1 0 0 0 0 0 0 0 0 0 0 0 0 0 0 0 0 0 0 0
3 8 11 17 15 8 9 2 6 5 2 2 1 1 1 1 0 1 1 2 2 1 1 0 0 0 0 0 0 0 0 0 0 0 0 0 0 0 0 0 -0 0 0
0 3 5 7 3 1 0 0 0 0 1 1 1 0 1 1 2 2 1 2 1 1 0 0 0 0 0 0 0 0 0 0 0 0 0 0 0 0 0 0 0 0 0
5 5 3 1 0 0 0 0 0 0 1 -0 0 0 1 1 1 1 2 2 1 0 0 0 0 0 0 0 0 0 0 0 0 0 0 0 0 0 0 0 0 0 0
3 2 0 0 -0 -0 -0 -0 -0 -0 -0 0 1 0 0 0 0 0 0 0 0 0 0 0 0 0 0 0 0 0 0 0 0 0 0 0 0 0 0 0 0 0 0
Wind_Speed_500mb
53 48 52 45 46 52 39 38 42 35 43 38 31 39 31 27 24 21 19 20 18 14 16 15 18 20 19 19 25 26 30 25 19 27 24 24 27 24 29 29 28 24 26
55 53 54 52 57 54 37 39 51 47 46 38 35 34 25 23 22 25 18 17 18 17 18 23 24 24 20 22 22 25 21 23 17 26 36 26 23 21 28 33 30 24 28
65 65 58 58 60 58 47 38 44 47 41 34 35 37 27 18 30 31 24 25 23 19 21 32 32 26 26 22 25 25 26 27 19 22 24 17 12 15 27 29 43 31 31
70 72 67 61 66 61 53 44 37 40 42 38 39 39 40 39 29 25 22 18 20 22 20 17 22 24 26 23 25 26 30 34 39 35 33 30 32 34 30 27 29 31 41
79 82 78 70 70 65 64 57 45 37 42 45 41 39 40 45 34 25 21 24 21 20 25 12 11 13 19 21 24 29 33 38 42 40 39 38 39 40 42 52 44 38 40
82 80 77 71 71 75 67 65 54 42 40 47 50 45 37 30 28 26 22 21 23 18 20 23 25 23 25 28 29 34 37 41 42 42 41 41 43 46 44 49 51 48 40
87 84 86 83 77 82 76 71 61 51 43 45 50 53 46 37 34 32 29 32 24 25 26 32 37 26 24 28 30 35 40 40 43 38 37 36 40 38 43 43 46 36 39
91 91 90 87 86 83 83 74 68 58 49 45 49 51 53 49 39 41 40 33 26 24 27 23 22 30 32 34 42 44 45 45 41 38 37 37 36 38 44 44 29 30 19
89 92 86 90 90 84 85 80 69 60 52 47 48 50 51 54 54 43 39 36 27 28 32 37 32 34 39 45 51 52 45 41 43 42 39 38 33 37 34 13 18 19 9
41 87 85 86 83 87 82 81 70 59 52 44 45 51 49 48 46 44 40 36 33 28 34 37 38 38 40 45 40 37 37 36 38 78 41 35 31 30 24 17 20 20 19
32 38 74 79 76 85 81 83 71 63 56 50 40 45 45 47 46 43 47 45 42 42 43 46 47 48 42 35 33 38 40 27 28 44 27 38 38 31 22 18 15 17 21
50 38 34 66 73 79 74 80 74 65 58 50 40 38 31 28 32 32 26 27 32 35 36 35 34 38 35 35 35 35 32 34 39 33 23 36 33 36 35 30 29 31 34
61 56 51 41 72 73 69 73 71 67 56 45 37 40 40 31 27 23 21 22 21 16 15 20 30 30 34 35 34 37 39 40 40 40 39 45 41 40 36 37 39 41 37
71 61 57 56 59 61 60 65 65 61 53 50 44 46 43 40 32 24 25 24 26 18 20 25 31 35 32 32 33 33 35 37 37 37 39 43 43 45 40 40 38 32 36
70 69 66 60 60 58 58 56 62 60 55 57 50 44 48 49 45 33 33 28 29 30 28 20 18 17 21 26 30 31 34 37 39 39 40 43 45 46 45 43 44 38 38
74 73 70 69 66 64 60 61 66 65 60 51 54 46 53 44 40 47 34 24 19 16 12 10 17 24 30 33 36 41 40 37 37 41 44 44 43 44 44 40 42 45 49
77 76 75 72 61 62 69 66 66 65 63 56 65 70 65 54 42 33 28 25 17 11 10 11 18 29 35 39 44 46 47 49 49 47 43 44 43 42 44 45 44 51 53
80 77 79 75 62 52 56 60 62 65 58 65 59 56 51 42 40 33 27 21 14 9 10 16 21 28 35 43 46 48 50 49 51 51 48 45 47 47 48 49 51 47 47
95 90 92 84 72 59 60 68 71 69 64 53 48 39 36 36 30 30 24 18 8 8 16 26 34 38 36 34 32 29 33 37 34 34 36 37 40 40 42 47 53 52 49
98 90 87 82 70 61 68 70 69 63 58 52 46 40 33 26 26 22 15 12 11 13 22 25 26 31 35 32 31 34 40 43 38 33 35 37 40 39 44 40 35 43 51
71 70 79 83 74 68 68 64 53 56 56 53 50 41 33 27 19 19 20 18 19 24 29 25 29 34 30 27 24 27 32 36 38 37 38 40 37 40 42 46 50 53 56
46 72 73 69 72 73 73 48 26 31 44 45 43 36 27 26 24 18 16 22 28 32 30 34 37 39 45 48 47 48 44 39 40 39 42 48 49 52 56 53 53 55 58
51 78 86 86 87 71 48 21 21 44 35 17 27 31 25 19 16 19 27 30 30 31 37 36 37 45 50 42 43 46 49 49 47 51 52 54 60 60 63 69 73 82 81
86 95 97 83 73 56 44 36 45 74 30 14 12 7 11 13 21 24 27 31 30 31 37 45 45 46 43 42 41 43 49 50 56 59 60 63 68 70 71 75 75 76 79
98 101 94 72 51 34 33 54 29 31 28 20 19 19 21 27 44 34 24 26 34 35 32 30 29 36 40 45 48 47 51 55 57 62 68 72 74 77 81 78 65 51 49
68 71 55 24 34 36 34 25 38 57 43 39 41 43 44 34 22 29 36 28 28 26 34 48 45 41 29 32 43 51 58 62 67 67 67 71 78 80 75 67 62 57 57
Wind_Direction_500mb
178 176 182 182 191 196 211 199 191 198 202 206 213 184 190 202 213 220 233 255 266 262 249 249 227 252 264 267 260 282 290 279 277 281 303 300 301 274 273 273 267 283 236
185 183 187 189 196 200 211 198 195 206 216 227 211 192 188 202 217 230 238 246 256 253 247 253 262 263 257 260 269 274 295 291 259 285 287 296 307 269 266 268 258 268 244
193 189 188 195 201 205 207 205 203 207 213 211 183 186 216 226 225 227 240 247 251 263 260 260 258 256 262 274 270 280 289 297 278 279 301 309 293 275 287 265 251 255 242
196 194 194 198 206 212 215 219 214 220 214 208 195 205 224 219 214 214 247 243 256 263 271 269 247 252 262 272 257 274 283 284 294 300 297 295 286 290 292 293 259 267 250
192 195 198 197 205 213 217 221 220 224 221 214 210 211 222 223 222 226 239 252 249 255 273 286 269 284 279 276 261 258 274 281 288 293 295 293 286 287 289 289 289 262 263
193 197 198 200 203 210 215 217 217 226 228 220 215 215 220 218 218 235 233 243 264 267 294 287 275 283 292 305 283 279 280 280 283 294 297 297 297 303 303 292 287 285 277
191 195 197 199 200 206 209 213 214 222 227 226 218 216 221 221 216 222 227 237 245 259 280 275 262 276 294 295 293 288 288 290 288 287 296 302 310 313 309 301 293 293 293
192 195 198 200 199 203 208 212 212 216 221 228 225 218 221 226 225 224 228 229 235 241 278 292 260 264 279 290 295 295 295 298 294 290 297 304 313 316 313 318 308 293 249
192 198 197 200 201 200 204 210 211 214 219 227 230 226 222 226 232 233 236 243 245 239 257 280 284 279 275 279 286 288 286 292 295 295 294 298 299 308 320 309 354 307 300
180 192 194 197 202 200 203 205 213 214 217 222 229 231 229 228 231 233 229 238 240 239 237 247 260 274 285 290 286 289 293 301 323 322 292 291 288 308 314 299 297 292 282
143 148 196 196 199 201 201 204 210 211 215 220 231 226 229 234 235 235 231 234 244 246 253 260 266 278 296 297 290 292 292 309 332 24 261 278 287 280 291 286 277 294 295
168 171 173 191 195 197 200 204 206 211 214 217 224 224 221 227 234 237 243 241 250 268 264 260 272 291 293 297 298 297 296 292 290 303 285 287 282 281 275 269 270 279 290
164 168 175 177 186 190 196 199 204 206 207 208 214 215 221 228 237 244 234 243 272 256 261 290 291 288 297 294 295 295 293 292 291 290 282 286 284 281 282 282 280 282 289
163 163 167 174 177 184 189 196 198 203 200 205 204 210 209 216 228 217 218 227 237 244 250 267 282 291 294 296 295 295 291 292 294 290 282 283 283 287 282 278 283 295 289
166 172 177 180 182 185 192 194 197 193 199 204 203 205 206 214 219 219 203 215 227 241 252 265 276 290 304 307 307 306 301 294 293 292 290 291 291 288 286 282 281 287 287
172 177 183 184 190 192 191 185 184 187 196 195 198 190 199 204 194 194 206 216 193 189 214 280 305 308 307 306 304 305 303 296 290 289 289 289 290 287 292 287 283 280 280
176 183 191 192 198 197 200 200 192 200 200 207 197 199 202 199 205 211 209 206 193 210 243 273 294 299 298 298 298 296 296 298 296 292 287 282 281 285 284 281 281 280 281
181 190 194 192 199 195 196 199 194 191 191 186 182 186 197 204 197 194 196 197 209 220 289 309 319 325 323 314 306 299 295 295 298 300 295 285 277 279 287 288 281 278 286
190 195 200 197 195 193 186 188 192 197 199 197 201 202 189 183 185 194 197 198 219 291 329 341 339 328 322 331 323 320 316 316 317 320 327 317 292 287 284 281 281 279 280
188 192 199 193 188 185 184 185 193 200 198 188 167 169 176 192 204 199 196 217 266 312 319 321 322 324 328 333 321 314 303 299 305 308 320 323 315 293 278 281 290 293 278
184 192 192 191 189 178 177 182 198 193 169 163 167 170 187 194 206 214 229 253 286 304 307 316 329 325 317 310 302 301 293 291 293 295 298 295 294 294 297 289 289 288 292
182 198 159 153 157 163 165 147 141 225 181 175 169 171 174 188 219 245 276 287 293 306 310 322 319 313 308 310 302 299 297 302 287 280 278 278 283 288 292 291 294 299 295
138 154 143 135 141 143 121 70 166 214 191 157 179 160 178 212 247 270 282 287 313 313 313 311 307 302 304 297 308 309 312 298 288 292 293 293 291 291 286 285 285 288 287
131 139 141 133 129 137 138 122 56 51 101 169 123 218 247 263 279 296 297 306 305 299 300 306 305 303 301 304 306 293 290 294 298 300 300 301 302 303 303 303 296 288 283
123 128 126 121 112 139 177 285 285 205 213 225 212 255 266 285 304 297 285 291 300 302 296 298 306 317 311 297 296 287 286 288 290 291 295 297 301 304 308 312 308 298 299
115 118 124 101 89 99 109 134 129 123 153 197 248 252 273 286 282 286 289 285 272 261 286 309 310 307 303 296 284 284 286 288 293 295 299 300 302 304 308 310 305 299 302
Wind_Speed_850mb
53 48 52 45 46 52 39 38 42 35 43 38 31 39 31 27 24 21 19 20 18 14 16 15 18 20 19 19 25 26 30 25 19 27 24 24 27 24 29 29 28 24 26
55 53 54 52 57 54 37 39 51 47 46 38 35 34 25 23 22 25 18 17 18 17 18 23 24 24 20 22 22 25 21 23 17 26 36 26 23 21 28 33 30 24 28
65 65 58 58 60 58 47 38 44 47 41 34 35 37 27 18 30 31 24 25 23 19 21 32 32 26 26 22 25 25 26 27 19 22 24 17 12 15 27 29 43 31 31
70 72 67 61 66 61 53 44 37 40 42 38 39 39 40 39 29 25 22 18 20 22 20 17 22 24 26 23 25 26 30 34 39 35 33 30 32 34 30 27 29 31 41
79 82 78 70 70 65 64 57 45 37 42 45 41 39 40 45 34 25 21 24 21 20 25 12 11 13 19 21 24 29 33 38 42 40 39 38 39 40 42 52 44 38 40
82 80 77 71 71 75 67 65 54 42 40 47 50 45 37 30 28 26 22 21 23 18 20 23 25 23 25 28 29 34 37 41 42 42 41 41 43 46 44 49 51 48 40
87 84 86 83 77 82 76 71 61 51 43 45 50 53 46 37 34 32 29 32 24 25 26 32 37 26 24 28 30 35 40 40 43 38 37 36 40 38 43 43 46 36 39
91 91 90 87 86 83 83 74 68 58 49 45 49 51 53 49 39 41 40 33 26 24 27 23 22 30 32 34 42 44 45 45 41 38 37 37 36 38 44 44 29 30 19
89 92 86 90 90 84 85 80 69 60 52 47 48 50 51 54 54 43 39 36 27 28 32 37 32 34 39 45 51 52 45 41 43 42 39 38 33 37 34 13 18 19 9
41 87 85 86 83 87 82 81 70 59 52 44 45 51 49 48 46 44 40 36 33 28 34 37 38 38 40 45 40 37 37 36 38 78 41 35 31 30 24 17 20 20 19
32 38 74 79 76 85 81 83 71 63 56 50 40 45 45 47 46 43 47 45 42 42 43 46 47 48 42 35 33 38 40 27 28 44 27 38 38 31 22 18 15 17 21
50 38 34 66 73 79 74 80 74 65 58 50 40 38 31 28 32 32 26 27 32 35 36 35 34 38 35 35 35 35 32 34 39 33 23 36 33 36 35 30 29 31 34
61 56 51 41 72 73 69 73 71 67 56 45 37 40 40 31 27 23 21 22 21 16 15 20 30 30 34 35 34 37 39 40 40 40 39 45 41 40 36 37 39 41 37
71 61 57 56 59 61 60 65 65 61 53 50 44 46 43 40 32 24 25 24 26 18 20 25 31 35 32 32 33 33 35 37 37 37 39 43 43 45 40 40 38 32 36
70 69 66 60 60 58 58 56 62 60 55 57 50 44 48 49 45 33 33 28 29 30 28 20 18 17 21 26 30 31 34 37 39 39 40 43 45 46 45 43 44 38 38
74 73 70 69 66 64 60 61 66 65 60 51 54 46 53 44 40 47 34 24 19 16 12 10 17 24 30 33 36 41 40 37 37 41 44 44 43 44 44 40 42 45 49
77 76 75 72 61 62 69 66 66 65 63 56 65 70 65 54 42 33 28 25 17 11 10 11 18 29 35 39 44 46 47 49 49 47 43 44 43 42 44 45 44 51 53
80 77 79 75 62 52 56 60 62 65 58 65 59 56 51 42 40 33 27 21 14 9 10 16 21 28 35 43 46 48 50 49 51 51 48 45 47 47 48 49 51 47 47
95 90 92 84 72 59 60 68 71 69 64 53 48 39 36 36 30 30 24 18 8 8 16 26 34 38 36 34 32 29 33 37 34 34 36 37 40 40 42 47 53 52 49
98 90 87 82 70 61 68 70 69 63 58 52 46 40 33 26 26 22 15 12 11 13 22 25 26 31 35 32 31 34 40 43 38 33 35 37 40 39 44 40 35 43 51
71 70 79 83 74 68 68 64 53 56 56 53 50 41 33 27 19 19 20 18 19 24 29 25 29 34 30 27 24 27 32 36 38 37 38 40 37 40 42 46 50 53 56
46 72 73 69 72 73 73 48 26 31 44 45 43 36 27 26 24 18 16 22 28 32 30 34 37 39 45 48 47 48 44 39 40 39 42 48 49 52 56 53 53 55 58
51 78 86 86 87 71 48 21 21 44 35 17 27 31 25 19 16 19 27 30 30 31 37 36 37 45 50 42 43 46 49 49 47 51 52 54 60 60 63 69 73 82 81
86 95 97 83 73 56 44 36 45 74 30 14 12 7 11 13 21 24 27 31 30 31 37 45 45 46 43 42 41 43 49 50 56 59 60 63 68 70 71 75 75 76 79
98 101 94 72 51 34 33 54 29 31 28 20 19 19 21 27 44 34 24 26 34 35 32 30 29 36 40 45 48 47 51 55 57 62 68 72 74 77 81 78 65 51 49
68 71 55 24 34 36 34 25 38 57 43 39 41 43 44 34 22 29 36 28 28 26 34 48 45 41 29 32 43 51 58 62 67 67 67 71 78 80 75 67 62 57 57
Wind_Direction_850mb
178 176 182 182 191 196 211 199 191 198 202 206 213 184 190 202 213 220 233 255 266 262 249 249 227 252 264 267 260 282 290 279 277 281 303 300 301 274 273 273 267 283 236
185 183 187 189 196 200 211 198 195 206 216 227 211 192 188 202 217 230 238 246 256 253 247 253 262 263 257 260 269 274 295 291 259 285 287 296 307 269 266 268 258 268 244
193 189 188 195 201 205 207 205 203 207 213 211 183 186 216 226 225 227 240 247 251 263 260 260 258 256 262 274 270 280 289 297 278 279 301 309 293 275 287 265 251 255 242
196 194 194 198 206 212 215 219 214 220 214 208 195 205 224 219 214 214 247 243 256 263 271 269 247 252 262 272 257 274 283 284 294 300 297 295 286 290 292 293 259 267 250
192 195 198 197 205 213 217 221 220 224 221 214 210 211 222 223 222 226 239 252 249 255 273 286 269 284 279 276 261 258 274 281 288 293 295 293 286 287 289 289 289 262 263
193 197 198 200 203 210 215 217 217 226 228 220 215 215 220 218 218 235 233 243 264 267 294 287 275 283 292 305 283 279 280 280 283 294 297 297 297 303 303 292 287 285 277
191 195 197 199 200 206 209 213 214 222 227 226 218 216 221 221 216 222 227 237 245 259 280 275 262 276 294 295 293 288 288 290 288 287 296 302 310 313 309 301 293 293 293
192 195 198 200 199 203 208 212 212 216 221 228 225 218 221 226 225 224 228 229 235 241 278 292 260 264 279 290 295 295 295 298 294 290 297 304 313 316 313 318 308 293 249
192 198 197 200 201 200 204 210 211 214 219 227 230 226 222 226 232 233 236 243 245 239 257 280 284 279 275 279 286 288 286 292 295 295 294 298 299 308 320 309 354 307 300
180 192 194 197 202 200 203 205 213 214 217 222 229 231 229 228 231 233 229 238 240 239 237 247 260 274 285 290 286 289 293 301 323 322 292 291 288 308 314 299 297 292 282
143 148 196 196 199 201 201 204 210 211 215 220 231 226 229 234 235 235 231 234 244 246 253 260 266 278 296 297 290 292 292 309 332 24 261 278 287 280 291 286 277 294 295
168 171 173 191 195 197 200 204 206 211 214 217 224 224 221 227 234 237 243 241 250 268 264 260 272 291 293 297 298 297 296 292 290 303 285 287 282 281 275 269 270 279 290
164 168 175 177 186 190 196 199 204 206 207 208 214 215 221 228 237 244 234 243 272 256 261 290 291 288 297 294 295 295 293 292 291 290 282 286 284 281 282 282 280 282 289
163 163 167 174 177 184 189 196 198 203 200 205 204 210 209 216 228 217 218 227 237 244 250 267 282 291 294 296 295 295 291 292 294 290 282 283 283 287 282 278 283 295 289
166 172 177 180 182 185 192 194 197 193 199 204 203 205 206 214 219 219 203 215 227 241 252 265 276 290 304 307 307 306 301 294 293 292 290 291 291 288 286 282 281 287 287
172 177 183 184 190 192 191 185 184 187 196 195 198 190 199 204 194 194 206 216 193 189 214 280 305 308 307 306 304 305 303 296 290 289 289 289 290 287 292 287 283 280 280
176 183 191 192 198 197 200 200 192 200 200 207 197 199 202 199 205 211 209 206 193 210 243 273 294 299 298 298 298 296 296 298 296 292 287 282 281 285 284 281 281 280 281
181 190 194 192 199 195 196 199 194 191 191 186 182 186 197 204 197 194 196 197 209 220 289 309 319 325 323 314 306 299 295 295 298 300 295 285 277 279 287 288 281 278 286
190 195 200 197 195 193 186 188 192 197 199 197 201 202 189 183 185 194 197 198 219 291 329 341 339 328 322 331 323 320 316 316 317 320 327 317 292 287 284 281 281 279 280
188 192 199 193 188 185 184 185 193 200 198 188 167 169 176 192 204 199 196 217 266 312 319 321 322 324 328 333 321 314 303 299 305 308 320 323 315 293 278 281 290 293 278
184 192 192 191 189 178 177 182 198 193 169 163 167 170 187 194 206 214 229 253 286 304 307 316 329 325 317 310 302 301 293 291 293 295 298 295 294 294 297 289 289 288 292
182 198 159 153 157 163 165 147 141 225 181 175 169 171 174 188 219 245 276 287 293 306 310 322 319 313 308 310 302 299 297 302 287 280 278 278 283 288 292 291 294 299 295
138 154 143 135 141 143 121 70 166 214 191 157 179 160 178 212 247 270 282 287 313 313 313 311 307 302 304 297 308 309 312 298 288 292 293 293 291 291 286 285 285 288 287
131 139 141 133 129 137 138 122 56 51 101 169 123 218 247 263 279 296 297 306 305 299 300 306 305 303 301 304 306 293 290 294 298 300 300 301 302 303 303 303 296 288 283
123 128 126 121 112 139 177 285 285 205 213 225 212 255 266 285 304 297 285 291 300 302 296 298 306 317 311 297 296 287 286 288 290 291 295 297 301 304 308 312 308 298 299
115 118 124 101 89 99 109 134 129 123 153 197 248 252 273 286 282 286 289 285 272 261 286 309 310 307 303 296 284 284 286 288 293 295 299 300 302 304 308 310 305 299 302